Location: Unspecified
(0.0000°N, 0.0000°E)
Time: 15:35:03
(UTC+00:00)

Envisat - Pass Details

Date: 22 February 2018
Orbit: 764 x 766 km, 98.2° (Epoch: 25 February)

Event Time Altitude Azimuth Distance (km) Brightness Sun altitude
Rises 19:42:40 0° 162° (SSE) 3,231 6.2 -21.9°
Reaches altitude 10° 19:45:00 10° 159° (SSE) 2,302 5.4 -22.5°
Maximum altitude 19:50:01 64° 78° (ENE) 845 2.9 -23.8°
Enters shadow 19:50:28 61° 49° (NE) 868 2.9 -23.9°
Exits shadow 19:52:40 28° 5° (N) 1,415 4.2 -24.4°
Drops below altitude 10° 19:55:01 10° 357° (N) 2,291 5.4 -25.0°
Sets 19:57:19 0° 354° (N) 3,214 6.2 -25.5°
